Time_in_sec,gx,gy,gz
1312467282.22307944,-0.00060840,-0.00814086,-0.99996668
1312467282.27221346,0.00008335,-0.00774882,-0.99996997
1312467282.32321787,0.00013376,-0.00778674,-0.99996967
1312467282.37153864,0.00065075,-0.00803268,-0.99996753
1312467282.42335010,0.00052410,-0.00804229,-0.99996752
1312467282.47260761,0.00036700,-0.00809885,-0.99996714
1312467282.52310538,0.00099319,-0.00778382,-0.99996921
1312467282.57153249,0.00072770,-0.00763345,-0.99997060
1312467282.62322187,0.00066871,-0.00787953,-0.99996873
1312467282.67162871,0.00080945,-0.00761303,-0.99997069
1312467282.72422314,0.00081876,-0.00744332,-0.99997196
1312467282.77182412,0.00101477,-0.00724142,-0.99997327
1312467282.82423568,0.00090506,-0.00737739,-0.99997238
1312467282.87248445,0.00075048,-0.00709801,-0.99997453
1312467282.92311668,0.00053437,-0.00727505,-0.99997339
1312467282.97212625,0.00041150,-0.00742470,-0.99997235
1312467283.02433777,0.00087670,-0.00739982,-0.99997224
1312467283.07120919,0.00071830,-0.00733308,-0.99997285
1312467283.12312150,0.00082733,-0.00716127,-0.99997402
1312467283.17151976,0.00084301,-0.00710033,-0.99997444
1312467283.22425556,0.00066658,-0.00737859,-0.99997256
1312467283.27226925,0.00102411,-0.00716778,-0.99997379
1312467283.32424331,0.00072912,-0.00730488,-0.99997305
1312467283.37224293,0.00043350,-0.00699812,-0.99997542
1312467283.42310596,0.00027362,-0.00719902,-0.99997405
1312467283.47214603,0.00004394,-0.00711856,-0.99997466
1312467283.52021575,0.00060373,-0.00670409,-0.99997735
1312467283.57222652,0.00041482,-0.00668497,-0.99997757
1312467283.62421513,0.00023441,-0.00663976,-0.99997793
1312467283.67112041,0.00020291,-0.00677351,-0.99997704
1312467283.72021365,0.00023283,-0.00673316,-0.99997730
1312467283.77111197,0.00099128,-0.00614055,-0.99998066
1312467283.82021379,0.00117691,-0.00609621,-0.99998073
1312467283.87187719,0.00107188,-0.00608570,-0.99998091
1312467283.92016006,0.00099152,-0.00613467,-0.99998069
1312467283.97212768,0.00087117,-0.00604069,-0.99998138
1312467284.02416015,0.00204810,-0.00589414,-0.99998053
1312467284.07305312,0.00206912,-0.00604128,-0.99997961
1312467284.12412190,0.00194081,-0.00620215,-0.99997888
1312467284.17212415,0.00208883,-0.00623417,-0.99997839
1312467284.22416520,0.00216139,-0.00634114,-0.99997756
1312467284.27307343,0.00191944,-0.00647081,-0.99997722
1312467284.32012415,0.00175741,-0.00640290,-0.99997796
1312467284.37215877,0.00149868,-0.00644165,-0.99997813
1312467284.42021132,0.00136892,-0.00674760,-0.99997630
1312467284.47109747,0.00147416,-0.00666208,-0.99997672
1312467284.52312374,0.00176729,-0.00652278,-0.99997716
1312467284.57110739,0.00190301,-0.00665957,-0.99997601
1312467284.62022018,0.00186342,-0.00668364,-0.99997593
1312467284.67221379,0.00162315,-0.00688175,-0.99997500
1312467284.72422886,0.00125200,-0.00665315,-0.99997708
1312467284.77222705,0.00119262,-0.00714655,-0.99997375
1312467284.82352233,0.00116761,-0.00695441,-0.99997514
1312467284.87261939,0.00131401,-0.00694299,-0.99997503
1312467284.92421508,0.00106476,-0.00686939,-0.99997584
1312467284.97126889,0.00092136,-0.00682466,-0.99997629
1312467285.02423334,0.00120600,-0.00669564,-0.99997686
1312467285.07222199,0.00113066,-0.00682232,-0.99997609
1312467285.12422204,0.00095292,-0.00690193,-0.99997573
1312467285.17222714,0.00081708,-0.00671759,-0.99997710
1312467285.22413611,0.00077479,-0.00679613,-0.99997661
1312467285.27245831,0.00084858,-0.00673810,-0.99997694
1312467285.32423306,0.00083147,-0.00663945,-0.99997761
1312467285.37209868,0.00072608,-0.00691084,-0.99997586
1312467285.42310548,0.00027165,-0.00681770,-0.99997672
1312467285.47216201,0.00008110,-0.00704807,-0.99997516
1312467285.52309632,0.00037590,-0.00734495,-0.99997295
1312467285.57116675,0.00024371,-0.00756131,-0.99997138
1312467285.62315202,-0.00010336,-0.00746080,-0.99997216
1312467285.67121601,-0.00013938,-0.00746487,-0.99997213
1312467285.72326851,-0.00018089,-0.00758922,-0.99997119
1312467285.77223206,0.00032746,-0.00720899,-0.99997396
1312467285.82342172,0.00027350,-0.00738707,-0.99997268
1312467285.87222123,0.00040439,-0.00729576,-0.99997330
1312467285.92320943,0.00031620,-0.00704148,-0.99997516
1312467285.97214580,0.00033710,-0.00694305,-0.99997584
1312467286.02360439,0.00093003,-0.00661341,-0.99997770
1312467286.07236528,0.00085355,-0.00627553,-0.99997994
1312467286.12353611,0.00076003,-0.00636781,-0.99997944
1312467286.17221403,0.00058773,-0.00623674,-0.99998038
1312467286.22385693,0.00058060,-0.00644139,-0.99997909
1312467286.27219009,0.00068218,-0.00633463,-0.99997970
1312467286.32413602,0.00070826,-0.00623042,-0.99998034
1312467286.37121177,0.00054600,-0.00624673,-0.99998034
1312467286.42421365,0.00053202,-0.00596209,-0.99998209
1312467286.47215843,0.00040074,-0.00583143,-0.99998292
1312467286.52033377,0.00083164,-0.00558078,-0.99998408
1312467286.57211041,0.00064494,-0.00589283,-0.99998243
1312467286.62318087,0.00069029,-0.00589063,-0.99998241
1312467286.67213511,0.00080491,-0.00580302,-0.99998284
1312467286.72021317,0.00085617,-0.00595821,-0.99998188
1312467286.77220941,0.00113856,-0.00509641,-0.99998637
1312467286.82337379,0.00121175,-0.00512162,-0.99998615
1312467286.87220454,0.00125688,-0.00497465,-0.99998684
1312467286.92019820,0.00134066,-0.00504652,-0.99998637
1312467286.97218776,0.00133836,-0.00499045,-0.99998665
1312467287.02018976,0.00154058,-0.00489170,-0.99998685
1312467287.07218385,0.00136992,-0.00494083,-0.99998686
1312467287.12018323,0.00131302,-0.00486206,-0.99998732
1312467287.17211580,0.00116611,-0.00486127,-0.99998750
1312467287.22009301,0.00102201,-0.00500723,-0.99998694
1312467287.27280211,0.00080990,-0.00509840,-0.99998668
1312467287.32010818,0.00081978,-0.00512071,-0.99998655
1312467287.37221456,0.00057434,-0.00508975,-0.99998688
1312467287.42016315,0.00041937,-0.00525812,-0.99998609
1312467287.47211194,0.00023594,-0.00537716,-0.99998552
1312467287.52314091,0.00099128,-0.00526680,-0.99998564
1312467287.57209969,0.00099063,-0.00513661,-0.99998632
1312467287.62421703,0.00096769,-0.00502645,-0.99998690
1312467287.67109513,0.00078417,-0.00484599,-0.99998795
1312467287.72422409,0.00067569,-0.00491316,-0.99998770
1312467287.77213788,0.00113505,-0.00462808,-0.99998865
1312467287.82308912,0.00108531,-0.00456216,-0.99998900
1312467287.87266994,0.00129396,-0.00463011,-0.99998844
1312467287.92318535,0.00128830,-0.00473646,-0.99998795
1312467287.97222137,0.00124984,-0.00506900,-0.99998637
1312467288.02311635,0.00161507,-0.00483492,-0.99998701
1312467288.07263732,0.00127118,-0.00491711,-0.99998710
1312467288.12319684,0.00106815,-0.00473885,-0.99998820
1312467288.17213249,0.00097474,-0.00448039,-0.99998949
1312467288.22320175,0.00103109,-0.00474116,-0.99998823
1312467288.27222180,0.00177850,-0.00459544,-0.99998786
1312467288.32341981,0.00173803,-0.00438375,-0.99998888
1312467288.37114429,0.00157985,-0.00429969,-0.99998951
1312467288.42334056,0.00174740,-0.00437544,-0.99998890
1312467288.47130227,0.00176102,-0.00467629,-0.99998752
1312467288.52423406,0.00193142,-0.00487212,-0.99998627
1312467288.57170486,0.00150098,-0.00473401,-0.99998767
1312467288.62311530,0.00166695,-0.00473870,-0.99998738
1312467288.67222500,0.00176792,-0.00478795,-0.99998697
1312467288.72340012,0.00157629,-0.00469307,-0.99998775
1312467288.77200246,0.00195101,-0.00441151,-0.99998837
1312467288.82422423,0.00185091,-0.00415768,-0.99998964
1312467288.87250209,0.00155116,-0.00440124,-0.99998911
1312467288.92328668,0.00123652,-0.00427844,-0.99999008
1312467288.97222590,0.00111524,-0.00410732,-0.99999094
1312467289.02040887,0.00118350,-0.00460975,-0.99998867
1312467289.07120228,0.00112043,-0.00423341,-0.99999041
1312467289.12404013,0.00082224,-0.00457893,-0.99998918
1312467289.17221546,0.00077717,-0.00464299,-0.99998892
1312467289.22416925,0.00085187,-0.00477759,-0.99998822
1312467289.27126741,0.00137592,-0.00454096,-0.99998874
1312467289.32311153,0.00167134,-0.00457182,-0.99998815
1312467289.37218714,0.00153407,-0.00479341,-0.99998733
1312467289.42025971,0.00125359,-0.00474923,-0.99998794
1312467289.47159171,0.00101404,-0.00493973,-0.99998729
1312467289.52425599,0.00105744,-0.00444068,-0.99998958
1312467289.57211900,0.00115296,-0.00450654,-0.99998918
1312467289.62308145,0.00098157,-0.00470449,-0.99998845
1312467289.67110324,0.00087930,-0.00473527,-0.99998840
1312467289.72425365,0.00088867,-0.00463978,-0.99998884
1312467289.77121449,0.00173829,-0.00438519,-0.99998887
1312467289.82026005,0.00156215,-0.00435466,-0.99998930
1312467289.87221169,0.00151359,-0.00444436,-0.99998898
1312467289.92309618,0.00178488,-0.00458506,-0.99998790
1312467289.97220588,0.00190814,-0.00462130,-0.99998750
1312467290.02309847,0.00190058,-0.00489569,-0.99998621
1312467290.07213640,0.00185267,-0.00498257,-0.99998587
1312467290.12342691,0.00202431,-0.00464711,-0.99998715
1312467290.17174435,0.00201432,-0.00462377,-0.99998728
1312467290.22020817,0.00191571,-0.00472788,-0.99998699
1312467290.27210999,0.00217108,-0.00452148,-0.99998742
1312467290.32012749,0.00216020,-0.00440649,-0.99998796
1312467290.37107944,0.00198243,-0.00436871,-0.99998849
1312467290.42008996,0.00199782,-0.00425214,-0.99998896
1312467290.47310376,0.00197683,-0.00397318,-0.99999015
1312467290.52506351,0.00213474,-0.00402643,-0.99998962
1312467290.57291842,0.00207308,-0.00399926,-0.99998985
1312467290.62014675,0.00186430,-0.00413336,-0.99998972
1312467290.67208862,0.00159945,-0.00419288,-0.99998993
1312467290.72341299,0.00140541,-0.00425938,-0.99998994
1312467290.77222657,0.00143776,-0.00433257,-0.99998958
1312467290.82309747,0.00109251,-0.00426040,-0.99999033
1312467290.87248826,0.00086497,-0.00380068,-0.99999240
1312467290.92308879,0.00100736,-0.00393040,-0.99999177
1312467290.97222590,0.00077318,-0.00390458,-0.99999208
1312467291.02713633,0.00088385,-0.00427189,-0.99999048
1312467291.07222104,0.00065029,-0.00441291,-0.99999005
1312467291.12315655,0.00064243,-0.00433251,-0.99999041
1312467291.17211246,0.00059674,-0.00451655,-0.99998962
1312467291.22309017,0.00061218,-0.00438636,-0.99999019
1312467291.27109218,0.00106107,-0.00504026,-0.99998673
1312467291.32411957,0.00097413,-0.00509567,-0.99998654
1312467291.37111974,0.00057452,-0.00522322,-0.99998619
1312467291.42320466,0.00048127,-0.00521925,-0.99998626
1312467291.47183537,0.00033410,-0.00515623,-0.99998665
1312467291.52423501,0.00073912,-0.00501048,-0.99998717
1312467291.57128692,0.00061953,-0.00483805,-0.99998810
1312467291.62369466,0.00047111,-0.00477815,-0.99998847
1312467291.67109084,0.00044829,-0.00491079,-0.99998784
1312467291.72327971,0.00039304,-0.00470316,-0.99998886
1312467291.77215576,0.00099788,-0.00467501,-0.99998857
1312467291.82309079,0.00112652,-0.00466233,-0.99998850
1312467291.87255764,0.00079182,-0.00467904,-0.99998874
1312467291.92319298,0.00066433,-0.00463356,-0.99998904
1312467291.97109580,0.00070354,-0.00455960,-0.99998936
1312467292.02411175,0.00104696,-0.00448680,-0.99998939
1312467292.07130671,0.00092211,-0.00422543,-0.99999065
1312467292.12315798,0.00086906,-0.00426496,-0.99999053
1312467292.17210150,0.00082290,-0.00430891,-0.99999038
1312467292.22346115,0.00093247,-0.00451994,-0.99998935
1312467292.27169394,0.00151527,-0.00443795,-0.99998900
1312467292.32310796,0.00167406,-0.00448791,-0.99998853
1312467292.37211275,0.00182741,-0.00445743,-0.99998840
1312467292.42025447,0.00181349,-0.00437460,-0.99998879
1312467292.47221136,0.00162020,-0.00444299,-0.99998882
1312467292.52419209,0.00187911,-0.00427186,-0.99998911
1312467292.57218218,0.00174841,-0.00412195,-0.99998998
1312467292.62378740,0.00168632,-0.00389961,-0.99999097
1312467292.67175817,0.00161353,-0.00388160,-0.99999116
1312467292.72310519,0.00153098,-0.00374114,-0.99999183
1312467292.77221775,0.00187084,-0.00360949,-0.99999174
1312467292.82014322,0.00148477,-0.00347495,-0.99999286
1312467292.87303042,0.00126732,-0.00354299,-0.99999292
1312467292.92013311,0.00140067,-0.00355873,-0.99999269
1312467292.97212648,0.00123659,-0.00366873,-0.99999251
1312467293.02056098,0.00118298,-0.00331567,-0.99999380
1312467293.07180309,0.00125235,-0.00338612,-0.99999348
1312467293.12010241,0.00100262,-0.00328570,-0.99999410
1312467293.17210555,0.00105569,-0.00318481,-0.99999437
1312467293.22012520,0.00107344,-0.00333695,-0.99999386
1312467293.27122235,0.00100801,-0.00336131,-0.99999384
1312467293.32407951,0.00097766,-0.00336753,-0.99999385
1312467293.37121534,0.00109212,-0.00333376,-0.99999385
1312467293.41998792,0.00082699,-0.00340722,-0.99999385
1312467293.47134829,0.00089114,-0.00319864,-0.99999449
1312467293.52107859,0.00079508,-0.00326128,-0.99999437
1312467293.57152200,0.00081067,-0.00314490,-0.99999473
1312467293.62009811,0.00096595,-0.00297612,-0.99999510
1312467293.67122698,0.00102438,-0.00284145,-0.99999544
1312467293.72390890,0.00077972,-0.00264120,-0.99999621
1312467293.77228189,0.00096037,-0.00262020,-0.99999611
1312467293.82312131,0.00098776,-0.00276070,-0.99999570
1312467293.87193966,0.00084481,-0.00237184,-0.99999683
1312467293.92408872,0.00039754,-0.00246512,-0.99999688
1312467293.97213125,0.00004581,-0.00217728,-0.99999763
1312467294.02204490,0.00027263,-0.00210896,-0.99999774
1312467294.07110000,0.00014917,-0.00190786,-0.99999817
1312467294.12318707,0.00029027,-0.00212762,-0.99999769
1312467294.17230988,0.00033659,-0.00218555,-0.99999756
1312467294.22325826,0.00038465,-0.00224639,-0.99999740
1312467294.27120185,0.00079679,-0.00206142,-0.99999756
1312467294.32324696,0.00057945,-0.00220899,-0.99999739
1312467294.37222409,0.00029452,-0.00234201,-0.99999721
1312467294.42312241,0.00032579,-0.00209796,-0.99999775
1312467294.47109270,0.00040853,-0.00228059,-0.99999732
1312467294.52191687,0.00029568,-0.00253979,-0.99999673
1312467294.57268643,0.00009340,-0.00270542,-0.99999634
1312467294.62331057,-0.00005431,-0.00243822,-0.99999703
1312467294.67223001,-0.00011474,-0.00254711,-0.99999675
1312467294.72358060,-0.00019422,-0.00213950,-0.99999769
1312467294.77119851,-0.00013673,-0.00205857,-0.99999787
1312467294.82308459,-0.00017108,-0.00207106,-0.99999784
1312467294.87257552,-0.00012566,-0.00200010,-0.99999799
1312467294.92311335,-0.00013694,-0.00205356,-0.99999788
1312467294.97186136,-0.00020050,-0.00186362,-0.99999824
1312467295.02341914,0.00058092,-0.00175706,-0.99999829
1312467295.07205725,0.00075651,-0.00166071,-0.99999833
1312467295.12308598,0.00071276,-0.00155484,-0.99999854
1312467295.17119026,0.00088207,-0.00188558,-0.99999783
1312467295.22413230,0.00067099,-0.00169670,-0.99999834
1312467295.27233505,0.00062956,-0.00185692,-0.99999808
1312467295.32312870,0.00071783,-0.00190688,-0.99999792
1312467295.37120342,0.00078692,-0.00190066,-0.99999788
1312467295.42308998,0.00093088,-0.00156919,-0.99999834
1312467295.47119927,0.00087560,-0.00144879,-0.99999857
1312467295.52336574,0.00099189,-0.00184397,-0.99999781
1312467295.57121181,0.00082689,-0.00171284,-0.99999819
1312467295.62310314,0.00072909,-0.00188064,-0.99999797
1312467295.67111564,0.00066619,-0.00185332,-0.99999806
1312467295.72309303,0.00061628,-0.00156160,-0.99999859
1312467295.77122831,0.00062442,-0.00132957,-0.99999892
1312467295.82312655,0.00060790,-0.00093886,-0.99999937
1312467295.87122703,0.00046552,-0.00096621,-0.99999942
1312467295.92022014,0.00047740,-0.00068183,-0.99999965
1312467295.97122121,0.00029224,-0.00081936,-0.99999962
1312467296.02020454,0.00067517,-0.00092377,-0.99999935
1312467296.07214141,0.00062786,-0.00051082,-0.99999967
1312467296.12312818,0.00032183,-0.00075364,-0.99999966
1312467296.17108750,0.00001600,-0.00069413,-0.99999976
1312467296.22309589,-0.00011401,-0.00059690,-0.99999982
1312467296.27211404,0.00008888,-0.00068704,-0.99999976
1312467296.32012081,-0.00000690,-0.00058869,-0.99999983
1312467296.37212443,-0.00006139,-0.00062171,-0.99999980
1312467296.42310810,-0.00036503,-0.00028218,-0.99999989
1312467296.47280192,-0.00025130,-0.00024525,-0.99999994
1312467296.52012300,0.00056647,-0.00032097,-0.99999979
1312467296.57221150,0.00050292,-0.00047073,-0.99999976
1312467296.62021589,0.00052916,-0.00069666,-0.99999962
1312467296.67221761,0.00051374,-0.00030099,-0.99999982
1312467296.72010326,0.00033276,-0.00054348,-0.99999980
1312467296.77112556,0.00085148,-0.00033962,-0.99999958
1312467296.82086706,0.00087258,-0.00038377,-0.99999955
1312467296.87289381,0.00082720,-0.00042718,-0.99999957
1312467296.92370892,0.00081400,-0.00022763,-0.99999964
1312467296.97222209,0.00057036,0.00006504,-0.99999984
1312467297.02410722,0.00091233,0.00013661,-0.99999957
1312467297.07184315,0.00062541,-0.00000310,-0.99999980
1312467297.12310624,0.00093215,0.00016451,-0.99999955
1312467297.17222285,0.00099407,0.00018758,-0.99999949
1312467297.22407508,0.00075471,0.00033450,-0.99999966
1312467297.27273011,0.00105488,0.00011508,-0.99999944
1312467297.32344294,0.00103338,-0.00016718,-0.99999945
1312467297.37210298,0.00094035,0.00024812,-0.99999953
1312467297.42335439,0.00069935,0.00013998,-0.99999975
1312467297.47222471,0.00059854,0.00005409,-0.99999982
1312467297.52310658,0.00110155,-0.00051190,-0.99999926
1312467297.56410933,0.00099087,-0.00050793,-0.99999938
1312467297.62311220,0.00092597,-0.00045184,-0.99999947
1312467297.67116261,0.00088366,-0.00060975,-0.99999942
1312467297.72308326,0.00093170,-0.00061673,-0.99999938
1312467297.77208352,0.00088036,-0.00044926,-0.99999951
1312467297.82413292,0.00080461,-0.00036373,-0.99999961
1312467297.87215590,0.00055396,-0.00045870,-0.99999974
1312467297.92309928,0.00035690,-0.00045760,-0.99999983
1312467297.97154903,0.00024873,-0.00029760,-0.99999992
1312467298.02310920,-0.00047827,-0.00074541,-0.99999961
1312467298.07228470,-0.00022577,-0.00076994,-0.99999968
1312467298.12312841,-0.00056688,-0.00084982,-0.99999948
1312467298.17123818,-0.00082236,-0.00090448,-0.99999925
1312467298.22324252,-0.00089373,-0.00071931,-0.99999934
1312467298.27213240,-0.00106915,-0.00041989,-0.99999934
1312467298.32310390,-0.00137745,-0.00030856,-0.99999900
1312467298.37225461,-0.00155751,-0.00012710,-0.99999878
1312467298.42310715,-0.00181714,-0.00020974,-0.99999833
1312467298.47235131,-0.00206522,-0.00024585,-0.99999784
1312467298.52327108,-0.00176321,0.00026233,-0.99999841
1312467298.57129669,-0.00192971,0.00014838,-0.99999813
1312467298.62366319,-0.00212677,0.00023784,-0.99999771
1312467298.67119765,-0.00195800,0.00010807,-0.99999808
1312467298.72316384,-0.00221823,0.00031128,-0.99999749
1312467298.77163577,-0.00204543,-0.00005880,-0.99999791
1312467298.82022023,-0.00215819,-0.00003338,-0.99999767
1312467298.87110448,-0.00228844,-0.00013783,-0.99999737
1312467298.92022562,-0.00233370,-0.00035199,-0.99999721
1312467298.97181392,-0.00248074,-0.00032332,-0.99999687
1312467299.02309370,-0.00273196,-0.00022300,-0.99999624
1312467299.07110119,-0.00280394,-0.00006927,-0.99999607
1312467299.12015319,-0.00265382,-0.00040918,-0.99999639
1312467299.17178631,-0.00303686,-0.00021998,-0.99999536
1312467299.22373176,-0.00281827,-0.00017701,-0.99999601
1312467299.27212048,-0.00265586,-0.00064200,-0.99999627
1312467299.32011676,-0.00289781,-0.00041438,-0.99999572
1312467299.37224078,-0.00301444,-0.00048124,-0.99999534
1312467299.42014694,-0.00294897,-0.00060547,-0.99999547
1312467299.47144938,-0.00309332,-0.00056761,-0.99999505
1312467299.52421069,-0.00283042,-0.00094039,-0.99999555
1312467299.57235360,-0.00297830,-0.00082276,-0.99999523
1312467299.62022161,-0.00319820,-0.00093275,-0.99999445
1312467299.67108822,-0.00320739,-0.00079008,-0.99999454
1312467299.72021937,-0.00302410,-0.00103157,-0.99999490
1312467299.77110767,-0.00276221,-0.00135577,-0.99999527
1312467299.82331371,-0.00267107,-0.00141342,-0.99999543
1312467299.87276268,-0.00287020,-0.00138847,-0.99999492
1312467299.92421699,-0.00305706,-0.00144999,-0.99999428
1312467299.97220397,-0.00311353,-0.00159646,-0.99999388
1312467300.02354789,-0.00309538,-0.00187960,-0.99999344
1312467300.07127047,-0.00293073,-0.00176966,-0.99999414
1312467300.12421536,-0.00313916,-0.00203131,-0.99999301
1312467300.17210770,-0.00305361,-0.00177044,-0.99999377
1312467300.22421217,-0.00304517,-0.00198672,-0.99999339
1312467300.27208614,-0.00304878,-0.00245849,-0.99999233
1312467300.32356811,-0.00318864,-0.00247549,-0.99999185
1312467300.37214923,-0.00308607,-0.00249796,-0.99999212
1312467300.42321515,-0.00326123,-0.00253298,-0.99999147
1312467300.47114539,-0.00355807,-0.00244185,-0.99999069
1312467300.52354383,-0.00320091,-0.00273757,-0.99999113
1312467300.57217121,-0.00315741,-0.00289852,-0.99999081
1312467300.62321019,-0.00327104,-0.00285653,-0.99999057
1312467300.67222285,-0.00349785,-0.00268766,-0.99999027
1312467300.72321415,-0.00388863,-0.00282429,-0.99998845
1312467300.77120209,-0.00357185,-0.00337873,-0.99998791
1312467300.82330489,-0.00365935,-0.00327701,-0.99998794
1312467300.87909198,-0.00384870,-0.00326524,-0.99998726
1312467300.92306185,-0.00368155,-0.00316900,-0.99998820
1312467300.97208786,-0.00365100,-0.00319231,-0.99998824
